GW0329 Weather Reports


Display with metric or nautical units.
time (UTC)temp
F
wind
direction
speed
MPH
gust
MPH
rain 1hr
in
rain 24hr
in
rain mn
in
humidity
%
barometer
mb
20260505114235 64 204 6.0 6.0 0.00 0.01 0.01 64 1007.3
20260505113732 64 226 6.0 14.0 0.00 0.01 0.01 63 1007.3
20260505113229 64 211 6.0 16.0 0.00 0.01 0.01 64 1007.3
20260505112725 63 202 4.0 10.0 0.00 0.01 0.01 64 1007.3
20260505112223 63 225 6.0 12.0 0.00 0.01 0.01 65 1007.3
20260505111723 63 233 3.0 6.0 0.00 0.01 0.01 65 1007.3
20260505111219 63 206 8.0 8.0 0.00 0.01 0.01 66 1007.1
20260505110715 62 172 3.0 9.0 0.00 0.01 0.01 66 1007.1
20260505110213 62 224 4.0 7.0 0.00 0.01 0.01 68 1007.2
20260505102148 61 200 4.0 7.0 0.00 0.01 0.01 69 1006.6
20260505101647 61 205 1.0 5.0 0.00 0.01 0.01 69 1006.5
20260505101143 61 208 4.0 8.0 0.00 0.01 0.01 69 1006.6
20260505100639 62 185 2.0 5.0 0.00 0.01 0.01 69 1006.5
20260505100136 62 180 4.0 12.0 0.00 0.01 0.01 69 1006.5
20260505095632 62 236 5.0 9.0 0.00 0.01 0.01 68 1006.5
20260505095129 62 196 5.0 8.0 0.00 0.01 0.01 69 1006.4
20260505094625 62 182 3.0 13.0 0.00 0.01 0.01 69 1006.2
20260505094122 62 178 3.0 6.0 0.00 0.01 0.01 69 1006.3
20260505093618 62 213 6.0 9.0 0.00 0.01 0.01 69 1006.1
20260505093115 62 170 7.0 10.0 0.00 0.01 0.01 69 1006.2
20260505092612 62 188 4.0 6.0 0.00 0.01 0.01 69 1006.0
20260505092112 62 179 3.0 6.0 0.00 0.01 0.01 69 1005.9
20260505091607 62 165 3.0 7.0 0.00 0.01 0.01 69 1005.8
20260505091106 62 220 7.0 10.0 0.00 0.01 0.01 69 1005.9
20260505090603 62 214 4.0 9.0 0.00 0.01 0.01 69 1006.0
20260505090101 61 167 4.0 6.0 0.00 0.01 0.01 70 1005.9
20260505085558 62 178 4.0 6.0 0.00 0.01 0.01 69 1005.9
20260505085057 62 211 3.0 6.0 0.00 0.01 0.01 70 1005.8
20260505084554 62 180 3.0 6.0 0.00 0.01 0.01 70 1005.8
20260505084052 61 174 4.0 10.0 0.00 0.01 0.01 70 1006.1
20260505083549 61 189 3.0 6.0 0.00 0.01 0.01 71 1006.0
20260505083046 61 173 3.0 10.0 0.00 0.01 0.01 71 1005.9
20260505082541 61 180 2.0 7.0 0.00 0.01 0.01 72 1005.9
20260505082039 61 179 3.0 6.0 0.00 0.01 0.01 73 1005.9
20260505081535 61 194 4.0 6.0 0.00 0.01 0.01 72 1006.0
20260505081032 61 202 4.0 7.0 0.00 0.01 0.01 72 1005.9
20260505080528 61 228 11.0 11.0 0.00 0.01 0.01 73 1005.8
20260505080025 61 189 6.0 7.0 0.00 0.01 0.01 73 1005.8
20260505075521 61 201 4.0 6.0 0.00 0.01 0.01 73 1005.7
20260505075018 61 185 3.0 7.0 0.00 0.01 0.01 73 1005.8
20260505074515 61 185 4.0 6.0 0.00 0.01 0.01 73 1005.7
20260505074012 61 180 5.0 11.0 0.00 0.01 0.01 73 1005.7
20260505073510 61 180 6.0 10.0 0.00 0.01 0.01 72 1005.7
20260505073008 61 176 6.0 7.0 0.00 0.01 0.01 72 1005.6
20260505072503 61 195 4.0 7.0 0.00 0.01 0.01 72 1005.8
20260505071959 62 209 5.0 12.0 0.00 0.01 0.01 71 1005.7
20260505071455 62 171 4.0 8.0 0.00 0.01 0.01 71 1005.6
20260505070953 62 170 3.0 6.0 0.00 0.01 0.01 70 1005.7
20260505070450 62 193 3.0 6.0 0.00 0.01 0.01 70 1005.6
20260505065946 62 186 5.0 12.0 0.00 0.01 0.01 69 1005.8
20260505065442 62 162 3.0 9.0 0.00 0.01 0.01 69 1005.5
20260505064939 62 188 6.0 10.0 0.00 0.01 0.01 68 1005.6
20260505064436 62 184 5.0 9.0 0.00 0.01 0.01 68 1005.6
20260505063934 62 194 4.0 6.0 0.00 0.01 0.01 68 1005.8
20260505063431 62 203 4.0 5.0 0.00 0.01 0.01 68 1005.6
20260505062927 62 204 13.0 17.0 0.00 0.01 0.01 68 1005.8
20260505062425 62 193 4.0 10.0 0.02 0.01 0.01 69 1006.0
20260505061921 63 184 7.0 10.0 0.07 0.01 0.01 68 1005.9
20260505061419 64 177 2.0 9.0 0.05 0.01 0.01 69 1005.7
20260505060916 64 215 5.0 12.0 0.00 0.00 0.00 65 1006.0
20260505060413 64 183 7.0 22.0 0.00 0.00 0.00 63 1006.0
20260505055910 64 208 6.0 10.0 0.00 0.00 0.00 62 1006.2
20260505055406 63 197 10.0 21.0 0.00 0.00 0.00 64 1006.4
20260505054903 63 207 3.0 7.0 0.00 0.00 0.00 65 1006.1
20260505054400 63 184 3.0 6.0 0.00 0.00 0.00 65 1006.0
20260505053858 63 203 3.0 4.0 0.00 0.00 0.00 65 1006.2
20260505053355 63 171 3.0 4.0 0.00 0.00 0.00 65 1006.0
20260505052852 63 175 4.0 5.0 0.00 0.00 0.00 64 1006.2
20260505052348 63 209 4.0 4.0 0.00 0.00 0.00 64 1006.3
20260505051846 63 171 2.0 5.0 0.00 0.00 0.00 64 1006.3
20260505051343 63 155 4.0 4.0 0.00 0.00 0.00 64 1006.3
20260505050841 63 197 4.0 5.0 0.00 0.00 0.00 64 1006.2
20260505050339 63 183 2.0 5.0 0.00 0.00 0.00 64 1006.3
20260505041306 63 190 3.0 6.0 0.00 0.00 0.00 64 1006.4
20260505040803 63 157 4.0 6.0 0.00 0.00 0.00 64 1006.5
20260505040301 63 176 4.0 5.0 0.00 0.00 0.00 63 1006.3
20260505035757 63 170 4.0 6.0 0.00 0.00 0.00 64 1006.2
20260505035253 63 170 4.0 6.0 0.00 0.00 0.00 63 1006.4
20260505034751 63 174 4.0 7.0 0.00 0.00 0.00 64 1006.2
20260505034247 63 179 4.0 4.0 0.00 0.00 0.00 64 1006.5
20260505033744 63 165 4.0 6.0 0.00 0.00 0.00 64 1006.2
20260505033242 63 177 3.0 6.0 0.00 0.00 0.00 64 1006.2
20260505032740 63 179 3.0 4.0 0.00 0.00 0.00 64 1006.4
20260505032235 63 171 4.0 6.0 0.00 0.00 0.00 63 1006.3
20260505031733 63 173 4.0 5.0 0.00 0.00 0.00 63 1006.3
20260505031229 63 173 5.0 5.0 0.00 0.00 0.00 63 1006.4
20260505030726 63 168 2.0 4.0 0.00 0.00 0.00 62 1006.3
20260505030222 63 168 3.0 5.0 0.00 0.00 0.00 62 1006.4
20260505025718 63 165 3.0 5.0 0.00 0.00 0.00 63 1006.5
20260505025217 64 172 3.0 4.0 0.00 0.00 0.00 62 1006.7
20260505024714 64 183 2.0 4.0 0.00 0.00 0.00 62 1006.5
20260505024211 64 177 4.0 4.0 0.00 0.00 0.00 61 1006.8
20260505023708 64 155 4.0 5.0 0.00 0.00 0.00 61 1006.7
20260505023206 64 176 2.0 4.0 0.00 0.00 0.00 61 1006.7
20260505022703 64 199 3.0 4.0 0.00 0.00 0.00 61 1006.6
20260505022200 64 180 5.0 6.0 0.00 0.00 0.00 60 1006.6
20260505021656 64 195 4.0 8.0 0.00 0.00 0.00 60 1006.4
20260505021153 65 196 3.0 6.0 0.00 0.00 0.00 60 1006.5
20260505020649 65 214 2.0 6.0 0.00 0.00 0.00 60 1006.6
20260505020145 65 166 3.0 5.0 0.00 0.00 0.00 60 1006.4
20260505015642 65 188 5.0 5.0 0.00 0.00 0.00 59 1006.7
20260505015139 65 193 3.0 6.0 0.00 0.00 0.00 60 1006.5
20260505014636 65 186 3.0 5.0 0.00 0.00 0.00 59 1006.7
20260505014133 65 222 3.0 6.0 0.00 0.00 0.00 59 1006.7
20260505013630 65 200 2.0 4.0 0.00 0.00 0.00 59 1006.5
20260505013127 65 170 3.0 4.0 0.00 0.00 0.00 58 1006.5
20260505012626 65 190 1.0 5.0 0.00 0.00 0.00 58 1006.5
20260505012122 66 175 4.0 5.0 0.00 0.00 0.00 57 1006.4
20260505011618 66 220 4.0 10.0 0.00 0.00 0.00 57 1006.4
20260505011115 66 195 3.0 11.0 0.00 0.00 0.00 57 1006.3
20260505010610 66 200 4.0 7.0 0.00 0.00 0.00 56 1006.3
20260505010108 66 195 2.0 6.0 0.00 0.00 0.00 56 1006.2
20260505005603 66 230 4.0 11.0 0.00 0.00 0.00 56 1006.2
20260505005101 67 200 4.0 6.0 0.00 0.00 0.00 56 1006.2
20260505004558 67 178 4.0 12.0 0.00 0.00 0.00 55 1006.2
20260505004055 67 171 4.0 11.0 0.00 0.00 0.00 55 1006.0
20260505003552 67 194 7.0 9.0 0.00 0.00 0.00 55 1006.0
20260505003049 67 234 9.0 10.0 0.00 0.00 0.00 55 1005.8
20260505002550 67 198 4.0 8.0 0.00 0.00 0.00 55 1005.8
20260505002049 67 215 6.0 6.0 0.00 0.00 0.00 55 1005.7
20260505001545 67 230 3.0 9.0 0.00 0.00 0.00 54 1005.7
20260505001043 68 187 4.0 8.0 0.00 0.00 0.00 54 1005.6
20260505000540 68 183 4.0 7.0 0.00 0.00 0.00 53 1005.7
20260505000038 68 186 2.0 12.0 0.00 0.00 0.00 53 1005.7
20260504235534 68 229 11.0 11.0 0.00 0.00 0.00 53 1005.7
20260504235031 68 201 4.0 9.0 0.00 0.00 0.00 53 1005.5
20260504234528 68 122 1.0 8.0 0.00 0.00 0.00 53 1005.7
20260504234025 68 181 4.0 8.0 0.00 0.00 0.00 52 1005.7
20260504233520 69 246 4.0 9.0 0.00 0.00 0.00 53 1005.6
20260504233017 69 207 3.0 13.0 0.00 0.00 0.00 52 1005.6
20260504232514 69 227 7.0 13.0 0.00 0.00 0.00 52 1005.5
20260504232012 69 174 4.0 6.0 0.00 0.00 0.00 52 1005.3
20260504231508 70 209 4.0 9.0 0.00 0.00 0.00 51 1005.3
20260504231004 70 143 4.0 15.0 0.00 0.00 0.00 51 1005.8
20260504230501 70 226 10.0 10.0 0.00 0.00 0.00 51 1005.9
20260504230000 70 216 10.0 11.0 0.00 0.00 0.00 51 1005.9
20260504225456 71 205 5.0 13.0 0.00 0.00 0.00 50 1005.8
20260504224953 70 170 6.0 10.0 0.00 0.00 0.00 50 1005.8
20260504224450 70 226 5.0 12.0 0.00 0.00 0.00 52 1005.8
20260504223947 70 220 10.0 12.0 0.00 0.00 0.00 52 1006.1
20260504223443 69 219 3.0 6.0 0.00 0.00 0.00 53 1006.0
20260504222938 69 161 2.0 9.0 0.00 0.00 0.00 52 1005.9
20260504222437 70 203 5.0 11.0 0.00 0.00 0.00 52 1006.0
20260504221934 70 200 5.0 5.0 0.00 0.00 0.00 51 1005.9
20260504221431 70 229 3.0 6.0 0.00 0.00 0.00 51 1005.9
20260504220928 70 189 3.0 11.0 0.00 0.00 0.00 51 1006.1
20260504220425 70 227 2.0 9.0 0.00 0.00 0.00 50 1006.3
20260504215922 70 210 4.0 7.0 0.00 0.00 0.00 50 1006.1
20260504215419 70 211 3.0 9.0 0.00 0.00 0.00 50 1006.0
20260504214915 70 215 2.0 9.0 0.00 0.00 0.00 49 1006.1
20260504214411 71 188 4.0 6.0 0.00 0.00 0.00 50 1005.9
20260504213908 71 213 6.0 7.0 0.00 0.00 0.00 50 1005.9
20260504213404 70 246 6.0 16.0 0.00 0.00 0.00 49 1006.0
20260504212902 71 203 5.0 7.0 0.00 0.00 0.00 50 1006.2
20260504212357 71 208 3.0 9.0 0.00 0.00 0.00 49 1005.9
20260504211855 71 226 7.0 8.0 0.00 0.00 0.00 50 1006.0
20260504211351 71 200 2.0 4.0 0.00 0.00 0.00 50 1005.8
20260504210849 71 193 4.0 6.0 0.00 0.00 0.00 48 1006.2
20260504210345 72 182 4.0 6.0 0.00 0.00 0.00 47 1005.8
20260504205843 73 231 9.0 17.0 0.00 0.00 0.00 45 1006.0
20260504205341 72 243 4.0 11.0 0.00 0.00 0.00 50 1006.0
20260504204838 72 253 10.0 14.0 0.00 0.00 0.00 47 1005.9
20260504204337 73 207 2.0 6.0 0.00 0.00 0.00 47 1005.8
20260504203836 72 214 6.0 12.0 0.00 0.00 0.00 48 1005.9
20260504203332 72 150 6.0 10.0 0.00 0.00 0.00 46 1005.8
20260504202827 72 234 7.0 8.0 0.00 0.00 0.00 46 1006.0
20260504202325 71 211 4.0 13.0 0.00 0.00 0.00 48 1006.0
20260504201822 71 170 4.0 7.0 0.00 0.00 0.00 47 1006.2
20260504201319 71 230 11.0 17.0 0.00 0.00 0.00 46 1006.2
20260504200817 71 218 10.0 19.0 0.00 0.00 0.00 46 1006.3
20260504200313 72 264 3.0 11.0 0.00 0.00 0.00 46 1006.3
20260504195809 72 197 4.0 8.0 0.00 0.00 0.00 49 1006.2
20260504195305 72 192 3.0 8.0 0.00 0.00 0.00 45 1006.4
20260504194802 72 220 7.0 13.0 0.00 0.00 0.00 49 1006.4
20260504194258 72 206 8.0 12.0 0.00 0.00 0.00 47 1006.3
20260504193754 72 206 4.0 12.0 0.00 0.00 0.00 49 1006.6
20260504193252 71 166 4.0 8.0 0.00 0.00 0.00 46 1006.5
20260504192750 71 181 6.0 13.0 0.00 0.00 0.00 47 1006.7
20260504192248 72 233 7.0 11.0 0.00 0.00 0.00 47 1006.7
20260504191747 72 233 11.0 11.0 0.00 0.00 0.00 47 1006.7
20260504191243 72 212 3.0 12.0 0.00 0.00 0.00 46 1006.8
20260504190739 71 237 9.0 13.0 0.00 0.00 0.00 48 1006.6
20260504190235 71 189 5.0 10.0 0.00 0.00 0.00 46 1006.7
20260504185732 72 142 4.0 5.0 0.00 0.00 0.00 45 1006.8
20260504185229 71 236 9.0 15.0 0.00 0.00 0.00 46 1006.9
20260504184725 71 173 2.0 11.0 0.00 0.00 0.00 48 1006.9
20260504184221 71 186 5.0 7.0 0.00 0.00 0.00 46 1007.2
20260504183717 71 221 9.0 17.0 0.00 0.00 0.00 46 1007.0
20260504183214 71 214 9.0 10.0 0.00 0.00 0.00 47 1007.1
20260504182712 70 208 4.0 8.0 0.00 0.00 0.00 49 1007.3
20260504182209 70 190 4.0 13.0 0.00 0.00 0.00 48 1007.2
20260504181707 71 226 2.0 12.0 0.00 0.00 0.00 45 1007.2
20260504181204 71 227 4.0 8.0 0.00 0.00 0.00 48 1007.3
20260504180703 71 195 6.0 9.0 0.00 0.00 0.00 46 1007.3
20260504180201 71 212 6.0 11.0 0.00 0.00 0.00 46 1007.4
20260504175658 71 223 8.0 9.0 0.00 0.00 0.00 46 1007.4
20260504175154 70 144 2.0 12.0 0.00 0.00 0.00 47 1007.2
20260504174653 70 193 3.0 9.0 0.00 0.00 0.00 49 1007.2
20260504174149 69 180 4.0 13.0 0.00 0.00 0.00 47 1007.5
20260504173646 69 167 4.0 12.0 0.00 0.00 0.00 50 1007.5
20260504173144 68 214 5.0 6.0 0.00 0.00 0.00 48 1007.6
20260504172640 69 216 7.0 15.0 0.00 0.00 0.00 46 1007.7
20260504172137 68 170 4.0 8.0 0.00 0.00 0.00 47 1007.6
20260504171633 68 192 5.0 13.0 0.00 0.00 0.00 48 1007.7
20260504171130 69 221 5.0 12.0 0.00 0.00 0.00 47 1007.8
20260504170626 68 151 1.0 11.0 0.00 0.00 0.00 48 1007.6
20260504170124 68 251 3.0 11.0 0.00 0.00 0.00 44 1007.7
20260504151010 63 124 4.0 9.0 0.00 0.00 0.00 50 1009.5
20260504150507 63 213 5.0 14.0 0.00 0.00 0.00 51 1009.6
20260504140933 61 278 4.0 9.0 0.00 0.00 0.00 50 1009.5
20260504140429 61 193 4.0 7.0 0.00 0.00 0.00 52 1009.5
20260504130354 58 200 6.0 10.0 0.00 0.00 0.00 52 1009.8
20260504120317 53 178 4.0 6.0 0.00 0.00 0.00 59 1009.7